SL-8 R/B, 18945

Orbit data source: Space-Track

SL-8 R/B, 18945 is space debris in LEO originally from a launch on Fri, 11 Mar 1988 UTC launched from the Plesetsk Missile And Space Complex (PKMTR). Debris objects in space refer to the collection of defunct objects orbiting the Earth. Examples of debris include non-operational satellites, rocket bodies, and fragments generated from explosions, collisions, or faulty payload assembly.

Loading next visibility...
Identifier
18945, 1988-016J
Orbit
LEO
Country
Flag of CISCIS
Related business
Manufacturer
Omsk Av. Zav.
Mission
Spacecraft
Bus & Motor
S3, Unknown motor
Mass
1,434 kg wet, 1,434 kg dry
Launch date (UTC)
1988-03-11 (38 years ago)
Launch vehicle
Unknown
Launch site
Plesetsk Missile And Space Complex (PKMTR)
Object type
Payload
Rocket body
Debris
Shape & HBR
Cyl, 3.3 m
Radar Cross Section
14.646 m², Large (>1 m²)

Expand to show TLE details & history
Last TLE update: 21 hours ago

TLE from 21 hours ago
0 SL-8 R/B
1 18945U 88016J   25348.71666275  .00000067  00000-0  72770-3 0  9991
2 18945  74.0091 343.1520 0140186 359.6912 173.6204 12.24051824687343
Epoch: 2025-12-14T17:11Z
TLE epoch observation values (Epoch: 2025-12-14T17:11:59.661Z)
Latitude
6.19482°
Longitude
179.75383°
Altitude
1,687.536 km
Speed
6.983 km/s
True Right ascension
10h 45m 30s
True Declination
6° 09' 44"
Sunlit
Object was in daylight at epoch
Visualization orbit readout
Latitude
Unknown
Longitude
Unknown
Altitude
Unknown
Speed
Unknown
Apparent Right ascension
Unknown
Apparent Declination
Unknown
Sunlit
N/A
Visualization observer readout
Local Sidereal Time
13:18:46
Azimuth
Unknown
Elevation
Unknown
Doppler factor
Unknown
Orbital elements
Apogee altitude
1,684.27 km
Perigee altitude
1,461.347 km
Semi-major axis
7,950.945 km
Eccentricity
0.01402
Inclination
74.0091°
RAAN
343.152°
Arg. of periapsis
359.6912°
True anomaly
173.79584°
Mean anomaly
173.6204°
Eccentric anomaly
173.70842°
Mean motion
3.06136 °/min
Orbital period
117.59 mins
BSTAR
0.0007277
Loading maneuver chart data...
Computing Atmospheric mass density...
Loading historical data...
Loading historical data...
Loading historical data...
Loading historical data...
Loading historical data...
Loading historical data...
Loading historical data...

Documentation

Showing up to 5 results
|